Regional Weather Roundup
Issued by NWS Goodland, KS

Home | Current Version | Previous Version | Graphics & Text | Print | Product List | Glossary On
Versions: 1 2 3 4 5 6 7 8 9 10 11 12 13 14 15 16 17 18 19 20 21 22 23 24 25 26 27 28 29 30 31 32 33 34 35 36 37 38 39 40 41 42 43 44 45 46 47 48 49 50
000
ASUS43 KGLD 230908
RWRGLD

GOODLAND FORECAST AREA HOURLY WEATHER ROUNDUP
NATIONAL WEATHER SERVICE GOODLAND KS
300 AM MDT SAT MAY 23 2015

...OFFICIAL OBSERVATIONS...

CITY           SKY/WX    TMP DP  RH WIND       PRES   REMARKS
GOODLAND KS    CLOUDY    53  53 100 SE13G22   30.03R FOG
HILL CITY KS   MOCLDY    54  52  93 SE15G24   30.06F
IMPERIAL NEB   LGT RAIN  52  51  97 SE17      30.04F
MCCOOK NEB     CLOUDY    54  53  97 SW5       30.11R THUNDER FOG
AKRON CO       CLOUDY    49  49 100 SE12      30.04S
BURLINGTON CO  FOG       53  52  96 VRB3      30.02S VSB 1/4
LIMON CO       CLOUDY    48  48 100 N10       30.01F
$$

...UNOFFICIAL OBSERVATIONS...

CITY           SKY/WX    TMP DP  RH WIND       PRES   REMARKS
GOVE KS          N/A     56  32  40 MISG        N/A
LENORA KS        N/A     53  32  45 MISG        N/A
SHARON SPRINGS   N/A     55  54  96 MISG        N/A
KIT CARSON CO    N/A     55  52  91 MISG        N/A
YUMA CO          N/A     52  52 100 E10         N/A
$$



USA.gov is the U.S. government's official web portal to all federal, state and local government web resources and services.